Regional Weather Roundup
Issued by NWS

Home | Current Version | Previous Version | Graphics & Text | Print | Product List | Glossary On
Versions: 1 2 3 4 5 6 7 8 9 10 11 12 13 14 15 16 17 18 19 20 21 22 23 24 25 26 27 28 29 30 31 32 33 34 35 36 37 38 39 40 41 42 43 44 45 46 47 48 49 50
000
ASUS43 KLOT 050703
RWRIL

ILLINOIS REGIONAL WEATHER ROUNDUP
NATIONAL WEATHER SERVICE CHICAGO/ROMEOVILLE IL
200 AM CDT THU MAY 05 2016

NOTE: "FAIR" INDICATES FEW OR NO CLOUDS BELOW 12,000 FEET WITH NO
SIGNIFICANT WEATHER AND/OR OBSTRUCTIONS TO VISIBILITY.

* THESE STATIONS ARE NOT UNDER NWS QUALITY CONTROL. THEY ALSO MAY NOT
  REPORT WEATHER SUCH AS PRECIPITATION OR FOG.

ILZ001-002-007-009-015-016-024-050800-
NORTHWEST ILLINOIS

CITY           SKY/WX    TMP DP  RH WIND       PRES   REMARKS
MOLINE         CLEAR     50  35  56 NW3       29.93R
$$

ILZ003-004-008-010-011-017-018-050800-
NORTH CENTRAL ILLINOIS

CITY           SKY/WX    TMP DP  RH WIND       PRES   REMARKS
ROCKFORD       CLEAR     40  35  83 N8        29.94F
FREEPORT*      CLEAR     40  35  81 N3        29.96S
ROCHELLE*      CLEAR     40  36  84 N9        29.92F
DE KALB*       PTCLDY    39  35  87 N12       29.92S WCI  31
$$

ILZ005-006-012>014-019>023-050800-
NORTHEAST ILLINOIS

CITY           SKY/WX    TMP DP  RH WIND       PRES   REMARKS
CHICAGO-OHARE  MOCLDY    43  33  68 N16       29.88S
CHICAGO-MIDWAY CLOUDY    44  32  62 N21G29    29.87S
AURORA         CLEAR     39  34  82 N9        29.90S WCI  33
LANSING*       CLOUDY    42  35  75 N17G26    29.86S
WAUKEGAN       CLOUDY    42  33  70 N14G23    29.89S
DUPAGE AIRPORT CLEAR     40  32  73 N14       29.89S
WHEELING       CLOUDY    43  33  68 N15G22    29.90S
NORTHERLY ISL    N/A     42  34  73 N23         N/A
NORTHERLY ISL    N/A     42  34  73 N23         N/A
$$

LMZ740>746-050800-
SOUTHERN LAKE MICHIGAN

STATION/POSITION SKY/WX   TEMP    WIND        PRES    VSBY  WAVE
                          AIR SEA DIR/SP/G                  HT/PER
                          (F)     (DEG/KT/KT) (MB)    (MI)  (FT/S)
SOUTHERN BUOY              41 40   20/ 25/ 31 1010.8         10/ 8
WILMETTE HARBOR            42 43   30/ 21/ 29   N/A           9/ 7
HARRISON CRIB              43     360/ 32/ 35   N/A
BURNHAM HARBOR             43     330/ 20/ 28   N/A
CALUMET HARBOR             42     340/ 23/ 32 1011.0S
BURNS HARBOR               42     360/ 24     1010.5S
MICHIGAN CITY              41     340/ 35/ 41   N/A
ST. JOSEPH                 43 47                N/A          10/ 8
$$

ILZ025>027-034>036-040-047-049-050-058-095>099-050800-
WEST-CENTRAL ILLINOIS

CITY           SKY/WX    TMP DP  RH WIND       PRES   REMARKS
QUINCY         CLEAR     46  37  71 NW8       29.91F
MACOMB*        CLEAR     46  36  68 N10       29.94R
PITTSFIELD*    CLEAR     49  37  64 NW7       29.91S
$$

ILZ028>032-037-038-041>044-048-051>054-059>061-050800-
CENTRAL ILLINOIS

CITY           SKY/WX    TMP DP  RH WIND       PRES   REMARKS
BLOOMINGTON    CLEAR     41  39  92 N7        29.89F
DECATUR        CLEAR     44  38  79 NE12      29.87R
PEORIA         CLEAR     45  38  76 NE9       29.91R
SPRINGFIELD    CLEAR     49  37  63 N9        29.88R
TAYLORVILLE    NOT AVBL
$$

ILZ033-039-045-046-055>057-062-063-050800-
EAST-CENTRAL ILLINOIS

CITY           SKY/WX    TMP DP  RH WIND       PRES   REMARKS
CHAMPAIGN      CLEAR     43  36  76 N14       29.85F
MATTOON        CLEAR     44  39  82 N10       29.84S
$$

ILZ079-100>102-050800-
SOUTHWEST ILLINOIS

CITY           SKY/WX    TMP DP  RH WIND       PRES   REMARKS
ALTON          CLEAR     46  39  77 W8        29.88S
BELLEVILLE     CLEAR     46  40  80 NW9       29.85F
CAHOKIA*       PTCLDY    53  38  56 NW8       29.87F
SPARTA*        CLEAR     47  41  77 W3        29.88S
$$

ILZ064>066-069>071-074>076-080>082-084>086-088>090-092>094-050800-
SOUTH-CENTRAL ILLINOIS

CITY           SKY/WX    TMP DP  RH WIND       PRES   REMARKS
CARBONDALE     CLEAR     46  41  82 W6        29.85F
MT. VERNON     CLEAR     43  37  81 CALM      29.84F
SALEM*         PTCLDY    48  43  84 W6        29.83F
$$

ILZ067-068-072-073-078-083-087-091-050800-
SOUTHEAST ILLINOIS

CITY           SKY/WX    TMP DP  RH WIND       PRES   REMARKS
LAWRENCEVILLE  CLOUDY    50  46  86 NW8       29.81F
FLORA*         CLOUDY    50  43  77 NW7       29.83S
HARRISBURG*    CLEAR     44  43  96 CALM      29.84F
ROBINSON*      CLOUDY    48  45  88 N7        29.83S
$$

ABBREVIATIONS USED IN REMARKS
   TC - TEMPERATURE IN CELSIUS
  WCI - WIND CHILL INDEX
   HX - HEAT INDEX
  VSB - VISIBILITY
$$





USA.gov is the U.S. government's official web portal to all federal, state and local government web resources and services.